Year,Month,Day,Hour,Minute,Value (Times are PST for temperature in C)
2010,08,06,00,00,20.30
2010,08,06,00,01,20.20
2010,08,06,00,02,20.20
2010,08,06,00,03,20.10
2010,08,06,00,04,20.10
2010,08,06,00,05,20.00
2010,08,06,00,06,19.90
2010,08,06,00,07,19.90
2010,08,06,00,08,19.80
2010,08,06,00,09,19.80
2010,08,06,00,10,19.80
2010,08,06,00,11,19.70
2010,08,06,00,12,19.70
2010,08,06,00,13,19.60
2010,08,06,00,14,19.60
2010,08,06,00,15,19.60
2010,08,06,00,16,19.50
2010,08,06,00,17,19.50
2010,08,06,00,18,19.50
2010,08,06,00,19,19.40
2010,08,06,00,20,19.40
2010,08,06,00,21,19.40
2010,08,06,00,22,19.40
2010,08,06,00,23,19.40
2010,08,06,00,24,19.40
2010,08,06,00,25,19.40
2010,08,06,00,26,19.40
2010,08,06,00,27,19.40
2010,08,06,00,28,19.30
2010,08,06,00,29,19.20
2010,08,06,00,30,19.10
2010,08,06,00,31,19.00
2010,08,06,00,32,18.90
2010,08,06,00,33,18.80
2010,08,06,00,34,18.70
2010,08,06,00,35,18.60
2010,08,06,00,36,18.60
2010,08,06,00,37,18.50
2010,08,06,00,38,18.40
2010,08,06,00,39,18.30
2010,08,06,00,40,18.30
2010,08,06,00,41,18.20
2010,08,06,00,42,18.20
2010,08,06,00,43,18.20
2010,08,06,00,44,18.20
2010,08,06,00,45,18.20
2010,08,06,00,46,18.20
2010,08,06,00,47,18.20
2010,08,06,00,48,18.20
2010,08,06,00,49,18.20
2010,08,06,00,50,18.20
2010,08,06,00,51,18.20
2010,08,06,00,52,18.20
2010,08,06,00,53,18.20
2010,08,06,00,54,18.20
2010,08,06,00,55,18.20
2010,08,06,00,56,18.20
2010,08,06,00,57,18.20
2010,08,06,00,58,18.20
2010,08,06,00,59,18.20
2010,08,06,01,00,18.20
2010,08,06,01,01,18.20
2010,08,06,01,02,18.20
2010,08,06,01,03,18.20
2010,08,06,01,04,18.20
2010,08,06,01,05,18.20
2010,08,06,01,06,18.10
2010,08,06,01,07,18.10
2010,08,06,01,08,18.10
2010,08,06,01,09,18.00
2010,08,06,01,10,17.90
2010,08,06,01,11,17.90
2010,08,06,01,12,17.80
2010,08,06,01,13,17.70
2010,08,06,01,14,17.60
2010,08,06,01,15,17.60
2010,08,06,01,16,17.50
2010,08,06,01,17,17.50
2010,08,06,01,18,17.40
2010,08,06,01,19,17.40
2010,08,06,01,20,17.30
2010,08,06,01,21,17.30
2010,08,06,01,22,17.30
2010,08,06,01,23,17.30
2010,08,06,01,24,17.30
2010,08,06,01,25,17.30
2010,08,06,01,26,17.30
2010,08,06,01,27,17.30
2010,08,06,01,28,17.30
2010,08,06,01,29,17.30
2010,08,06,01,30,17.30
2010,08,06,01,31,17.30
2010,08,06,01,32,17.30
2010,08,06,01,33,17.30
2010,08,06,01,34,17.30
2010,08,06,01,35,17.20
2010,08,06,01,36,17.20
2010,08,06,01,37,17.20
2010,08,06,01,38,17.20
2010,08,06,01,39,17.20
2010,08,06,01,40,17.20
2010,08,06,01,41,17.20
2010,08,06,01,42,17.20
2010,08,06,01,43,17.20
2010,08,06,01,44,17.20
2010,08,06,01,45,17.20
2010,08,06,01,46,17.20
2010,08,06,01,47,17.20
2010,08,06,01,48,17.20
2010,08,06,01,49,17.20
2010,08,06,01,50,17.20
2010,08,06,01,51,17.10
2010,08,06,01,52,17.00
2010,08,06,01,53,17.00
2010,08,06,01,54,16.90
2010,08,06,01,55,16.80
2010,08,06,01,56,16.80
2010,08,06,01,57,16.70
2010,08,06,01,58,16.70
2010,08,06,01,59,16.70
2010,08,06,02,00,16.70
2010,08,06,02,01,16.70
2010,08,06,02,02,16.70
2010,08,06,02,03,16.70
2010,08,06,02,04,16.70
2010,08,06,02,05,16.70
2010,08,06,02,06,16.80
2010,08,06,02,07,16.80
2010,08,06,02,08,16.80
2010,08,06,02,09,16.80
2010,08,06,02,10,16.80
2010,08,06,02,11,16.80
2010,08,06,02,12,16.80
2010,08,06,02,13,16.80
2010,08,06,02,14,16.80
2010,08,06,02,15,16.80
2010,08,06,02,16,16.80
2010,08,06,02,17,16.80
2010,08,06,02,18,16.90
2010,08,06,02,19,16.90
2010,08,06,02,20,16.90
2010,08,06,02,21,16.90
2010,08,06,02,22,16.90
2010,08,06,02,23,17.00
2010,08,06,02,24,17.00
2010,08,06,02,25,17.00
2010,08,06,02,26,17.00
2010,08,06,02,27,17.00
2010,08,06,02,28,17.00
2010,08,06,02,29,16.90
2010,08,06,02,30,16.90
2010,08,06,02,31,16.90
2010,08,06,02,32,16.80
2010,08,06,02,33,16.80
2010,08,06,02,34,16.70
2010,08,06,02,35,16.70
2010,08,06,02,36,16.70
2010,08,06,02,37,16.60
2010,08,06,02,38,16.50
2010,08,06,02,39,16.40
2010,08,06,02,40,16.40
2010,08,06,02,41,16.30
2010,08,06,02,42,16.30
2010,08,06,02,43,16.20
2010,08,06,02,44,16.20
2010,08,06,02,45,16.10
2010,08,06,02,46,16.10
2010,08,06,02,47,16.10
2010,08,06,02,48,16.10
2010,08,06,02,49,16.10
2010,08,06,02,50,16.00
2010,08,06,02,51,15.90
2010,08,06,02,52,15.90
2010,08,06,02,53,15.90
2010,08,06,02,54,15.90
2010,08,06,02,55,16.00
2010,08,06,02,56,16.10
2010,08,06,02,57,16.10
2010,08,06,02,58,16.10
2010,08,06,02,59,16.10
2010,08,06,03,00,16.10
2010,08,06,03,01,16.20
2010,08,06,03,02,16.20
2010,08,06,03,03,16.20
2010,08,06,03,04,16.20
2010,08,06,03,05,16.20
2010,08,06,03,06,16.20
2010,08,06,03,07,16.20
2010,08,06,03,08,16.20
2010,08,06,03,09,16.20
2010,08,06,03,10,16.20
2010,08,06,03,11,16.20
2010,08,06,03,12,16.20
2010,08,06,03,13,16.20
2010,08,06,03,14,16.20
2010,08,06,03,15,16.20
2010,08,06,03,16,16.30
2010,08,06,03,17,16.30
2010,08,06,03,18,16.30
2010,08,06,03,19,16.30
2010,08,06,03,20,16.30
2010,08,06,03,21,16.30
2010,08,06,03,22,16.30
2010,08,06,03,23,16.20
2010,08,06,03,24,16.20
2010,08,06,03,25,16.20
2010,08,06,03,26,16.10
2010,08,06,03,27,16.10
2010,08,06,03,28,16.10
2010,08,06,03,29,16.10
2010,08,06,03,30,16.10
2010,08,06,03,31,16.00
2010,08,06,03,32,15.90
2010,08,06,03,33,15.90
2010,08,06,03,34,15.90
2010,08,06,03,35,15.80
2010,08,06,03,36,15.80
2010,08,06,03,37,15.80
2010,08,06,03,38,15.80
2010,08,06,03,39,15.80
2010,08,06,03,40,15.80
2010,08,06,03,41,15.80
2010,08,06,03,42,15.80
2010,08,06,03,43,15.80
2010,08,06,03,44,15.80
2010,08,06,03,45,15.80
2010,08,06,03,46,15.80
2010,08,06,03,47,15.70
2010,08,06,03,48,15.70
2010,08,06,03,49,15.70
2010,08,06,03,50,15.70
2010,08,06,03,51,15.70
2010,08,06,03,52,15.70
2010,08,06,03,53,15.70
2010,08,06,03,54,15.60
2010,08,06,03,55,15.60
2010,08,06,03,56,15.60
2010,08,06,03,57,15.60
2010,08,06,03,58,15.60
2010,08,06,03,59,15.60
2010,08,06,04,00,15.50
2010,08,06,04,01,15.50
2010,08,06,04,02,15.50
2010,08,06,04,03,15.50
2010,08,06,04,04,15.50
2010,08,06,04,05,15.50
2010,08,06,04,06,15.50
2010,08,06,04,07,15.40
2010,08,06,04,08,15.40
2010,08,06,04,09,15.40
2010,08,06,04,10,15.50
2010,08,06,04,11,15.50
2010,08,06,04,12,15.50
2010,08,06,04,13,15.50
2010,08,06,04,14,15.60
2010,08,06,04,15,15.60
2010,08,06,04,16,15.60
2010,08,06,04,17,15.60
2010,08,06,04,18,15.60
2010,08,06,04,19,15.60
2010,08,06,04,20,15.60
2010,08,06,04,21,15.60
2010,08,06,04,22,15.60
2010,08,06,04,23,15.60
2010,08,06,04,24,15.60
2010,08,06,04,25,15.70
2010,08,06,04,26,15.70
2010,08,06,04,27,15.70
2010,08,06,04,28,15.70
2010,08,06,04,29,15.80
2010,08,06,04,30,15.80
2010,08,06,04,31,15.80
2010,08,06,04,32,15.80
2010,08,06,04,33,15.80
2010,08,06,04,34,15.80
2010,08,06,04,35,15.70
2010,08,06,04,36,15.70
2010,08,06,04,37,15.70
2010,08,06,04,38,15.60
2010,08,06,04,39,15.60
2010,08,06,04,40,15.50
2010,08,06,04,41,15.50
2010,08,06,04,42,15.40
2010,08,06,04,43,15.30
2010,08,06,04,44,15.20
2010,08,06,04,45,15.20
2010,08,06,04,46,15.10
2010,08,06,04,47,15.10
2010,08,06,04,48,15.00
2010,08,06,04,49,15.00
2010,08,06,04,50,15.00
2010,08,06,04,51,15.00
2010,08,06,04,52,14.90
2010,08,06,04,53,14.90
2010,08,06,04,54,14.90
2010,08,06,04,55,14.90
2010,08,06,04,56,14.90
2010,08,06,04,57,14.90
2010,08,06,04,58,14.90
2010,08,06,04,59,14.90
2010,08,06,05,00,14.90
2010,08,06,05,01,14.90
2010,08,06,05,02,14.90
2010,08,06,05,03,14.90
2010,08,06,05,04,14.80
2010,08,06,05,05,14.80
2010,08,06,05,06,14.80
2010,08,06,05,07,14.80
2010,08,06,05,08,14.70
2010,08,06,05,09,14.70
2010,08,06,05,10,14.70
2010,08,06,05,11,14.70
2010,08,06,05,12,14.60
2010,08,06,05,13,14.60
2010,08,06,05,14,14.60
2010,08,06,05,15,14.60
2010,08,06,05,16,14.60
2010,08,06,05,17,14.60
2010,08,06,05,18,14.60
2010,08,06,05,19,14.60
2010,08,06,05,20,14.60
2010,08,06,05,21,14.50
2010,08,06,05,22,14.50
2010,08,06,05,23,14.50
2010,08,06,05,24,14.50
2010,08,06,05,25,14.50
2010,08,06,05,26,14.50
2010,08,06,05,27,14.50
2010,08,06,05,28,14.50
2010,08,06,05,29,14.50
2010,08,06,05,30,14.50
2010,08,06,05,31,14.60
2010,08,06,05,32,14.60
2010,08,06,05,33,14.60
2010,08,06,05,34,14.60
2010,08,06,05,35,14.60
2010,08,06,05,36,14.60
2010,08,06,05,37,14.60
2010,08,06,05,38,14.60
2010,08,06,05,39,14.60
2010,08,06,05,40,14.60
2010,08,06,05,41,14.50
2010,08,06,05,42,14.50
2010,08,06,05,43,14.50
2010,08,06,05,44,14.50
2010,08,06,05,45,14.50
2010,08,06,05,46,14.50
2010,08,06,05,47,14.50
2010,08,06,05,48,14.50
2010,08,06,05,49,14.50
2010,08,06,05,50,14.40
2010,08,06,05,51,14.40
2010,08,06,05,52,14.40
2010,08,06,05,53,14.40
2010,08,06,05,54,14.50
2010,08,06,05,55,14.50
2010,08,06,05,56,14.50
2010,08,06,05,57,14.50
2010,08,06,05,58,14.50
2010,08,06,05,59,14.50
2010,08,06,06,00,14.50
2010,08,06,06,01,14.50
2010,08,06,06,02,14.50
2010,08,06,06,03,14.50
2010,08,06,06,04,14.50
2010,08,06,06,05,14.50
2010,08,06,06,06,14.50
2010,08,06,06,07,14.50
2010,08,06,06,08,14.50
2010,08,06,06,09,14.50
2010,08,06,06,10,14.50
2010,08,06,06,11,14.50
2010,08,06,06,12,14.60
2010,08,06,06,13,14.60
2010,08,06,06,14,14.60
2010,08,06,06,15,14.50
2010,08,06,06,16,14.50
2010,08,06,06,17,14.50
2010,08,06,06,18,14.60
2010,08,06,06,19,14.60
2010,08,06,06,20,14.60
2010,08,06,06,21,14.60
2010,08,06,06,22,14.60
2010,08,06,06,23,14.70
2010,08,06,06,24,14.70
2010,08,06,06,25,14.70
2010,08,06,06,26,14.70
2010,08,06,06,27,14.80
2010,08,06,06,28,14.80
2010,08,06,06,29,14.80
2010,08,06,06,30,14.80
2010,08,06,06,31,14.80
2010,08,06,06,32,14.80
2010,08,06,06,33,14.80
2010,08,06,06,34,14.80
2010,08,06,06,35,14.70
2010,08,06,06,36,14.70
2010,08,06,06,37,14.70
2010,08,06,06,38,14.70
2010,08,06,06,39,14.70
2010,08,06,06,40,14.70
2010,08,06,06,41,14.70
2010,08,06,06,42,14.70
2010,08,06,06,43,14.70
2010,08,06,06,44,14.70
2010,08,06,06,45,14.70
2010,08,06,06,46,14.70
2010,08,06,06,47,14.70
2010,08,06,06,48,14.70
2010,08,06,06,49,14.70
2010,08,06,06,50,14.70
2010,08,06,06,51,14.70
2010,08,06,06,52,14.70
2010,08,06,06,53,14.70
2010,08,06,06,54,14.70
2010,08,06,06,55,14.70
2010,08,06,06,56,14.70
2010,08,06,06,57,14.70
2010,08,06,06,58,14.70
2010,08,06,06,59,14.70
2010,08,06,07,00,14.70
2010,08,06,07,01,14.70
2010,08,06,07,02,14.70
2010,08,06,07,03,14.70
2010,08,06,07,04,14.70
2010,08,06,07,05,14.80
2010,08,06,07,06,14.80
2010,08,06,07,07,14.80
2010,08,06,07,08,14.80
2010,08,06,07,09,14.80
2010,08,06,07,10,14.80
2010,08,06,07,11,14.80
2010,08,06,07,12,14.90
2010,08,06,07,13,14.90
2010,08,06,07,14,14.90
2010,08,06,07,15,15.00
2010,08,06,07,16,15.00
2010,08,06,07,17,15.10
2010,08,06,07,18,15.10
2010,08,06,07,19,15.20
2010,08,06,07,20,15.20
2010,08,06,07,21,15.20
2010,08,06,07,22,15.30
2010,08,06,07,23,15.30
2010,08,06,07,24,15.30
2010,08,06,07,25,15.30
2010,08,06,07,26,15.30
2010,08,06,07,27,15.30
2010,08,06,07,28,15.30
2010,08,06,07,29,15.30
2010,08,06,07,30,15.30
2010,08,06,07,31,15.30
2010,08,06,07,32,15.30
2010,08,06,07,33,15.30
2010,08,06,07,34,15.30
2010,08,06,07,35,15.30
2010,08,06,07,36,15.40
2010,08,06,07,37,15.40
2010,08,06,07,38,15.50
2010,08,06,07,39,15.50
2010,08,06,07,40,15.60
2010,08,06,07,41,15.60
2010,08,06,07,42,15.60
2010,08,06,07,43,15.70
2010,08,06,07,44,15.70
2010,08,06,07,45,15.70
2010,08,06,07,46,15.80
2010,08,06,07,47,15.80
2010,08,06,07,48,15.80
2010,08,06,07,49,15.80
2010,08,06,07,50,15.80
2010,08,06,07,51,15.90
2010,08,06,07,52,15.90
2010,08,06,07,53,15.90
2010,08,06,07,54,15.90
2010,08,06,07,55,15.90
2010,08,06,07,56,15.90
2010,08,06,07,57,15.90
2010,08,06,07,58,15.90
2010,08,06,07,59,15.90
2010,08,06,08,00,15.90
2010,08,06,08,01,15.90
2010,08,06,08,02,15.90
2010,08,06,08,03,16.10
2010,08,06,08,04,16.10
2010,08,06,08,05,16.10
2010,08,06,08,06,16.10
2010,08,06,08,07,16.10
2010,08,06,08,08,16.10
2010,08,06,08,09,16.10
2010,08,06,08,10,16.20
2010,08,06,08,11,16.30
2010,08,06,08,12,16.30
2010,08,06,08,13,16.30
2010,08,06,08,14,16.40
2010,08,06,08,15,16.40
2010,08,06,08,16,16.40
2010,08,06,08,17,16.40
2010,08,06,08,18,16.50
2010,08,06,08,19,16.60
2010,08,06,08,20,16.70
2010,08,06,08,21,16.70
2010,08,06,08,22,16.80
2010,08,06,08,23,16.90
2010,08,06,08,24,17.00
2010,08,06,08,25,17.00
2010,08,06,08,26,17.00
2010,08,06,08,27,17.10
2010,08,06,08,28,17.10
2010,08,06,08,29,17.20
2010,08,06,08,30,17.20
2010,08,06,08,31,17.30
2010,08,06,08,32,17.30
2010,08,06,08,33,17.40
2010,08,06,08,34,17.40
2010,08,06,08,35,17.50
2010,08,06,08,36,17.50
2010,08,06,08,37,17.60
2010,08,06,08,38,17.70
2010,08,06,08,39,17.80
2010,08,06,08,40,17.80
2010,08,06,08,41,17.90
2010,08,06,08,42,17.90
2010,08,06,08,43,18.00
2010,08,06,08,44,18.10
2010,08,06,08,45,18.20
2010,08,06,08,46,18.20
2010,08,06,08,47,18.30
2010,08,06,08,48,18.30
2010,08,06,08,49,18.30
2010,08,06,08,50,18.30
2010,08,06,08,51,18.30
2010,08,06,08,52,18.30
2010,08,06,08,53,18.30
2010,08,06,08,54,18.40
2010,08,06,08,55,18.40
2010,08,06,08,56,18.50
2010,08,06,08,57,18.50
2010,08,06,08,58,18.60
2010,08,06,08,59,18.60
2010,08,06,09,00,18.70
2010,08,06,09,01,18.80
2010,08,06,09,02,18.80
2010,08,06,09,03,18.80
2010,08,06,09,04,18.80
2010,08,06,09,05,18.70
2010,08,06,09,06,18.70
2010,08,06,09,07,18.60
2010,08,06,09,08,18.60
2010,08,06,09,09,18.60
2010,08,06,09,10,18.60
2010,08,06,09,11,18.70
2010,08,06,09,12,18.70
2010,08,06,09,13,18.80
2010,08,06,09,14,18.90
2010,08,06,09,15,18.90
2010,08,06,09,16,18.90
2010,08,06,09,17,18.90
2010,08,06,09,18,18.90
2010,08,06,09,19,18.90
2010,08,06,09,20,19.00
2010,08,06,09,21,19.10
2010,08,06,09,22,19.10
2010,08,06,09,23,19.10
2010,08,06,09,24,19.10
2010,08,06,09,25,19.10
2010,08,06,09,26,19.10
2010,08,06,09,27,19.00
2010,08,06,09,28,18.90
2010,08,06,09,29,18.90
2010,08,06,09,30,19.00
2010,08,06,09,31,19.00
2010,08,06,09,32,18.90
2010,08,06,09,33,18.90
2010,08,06,09,34,18.80
2010,08,06,09,35,18.80
2010,08,06,09,36,18.80
2010,08,06,09,37,18.70
2010,08,06,09,38,18.60
2010,08,06,09,39,18.60
2010,08,06,09,40,18.60
2010,08,06,09,41,18.50
2010,08,06,09,42,18.50
2010,08,06,09,43,18.50
2010,08,06,09,44,18.50
2010,08,06,09,45,18.50
2010,08,06,09,46,18.60
2010,08,06,09,47,18.60
2010,08,06,09,48,18.70
2010,08,06,09,49,18.60
2010,08,06,09,50,18.70
2010,08,06,09,51,18.70
2010,08,06,09,52,18.70
2010,08,06,09,53,18.70
2010,08,06,09,54,18.70
2010,08,06,09,55,18.70
2010,08,06,09,56,18.70
2010,08,06,09,57,18.80
2010,08,06,09,58,18.90
2010,08,06,09,59,19.00
2010,08,06,10,00,19.10
2010,08,06,10,01,19.10
2010,08,06,10,02,19.20
2010,08,06,10,03,19.30
2010,08,06,10,04,19.30
2010,08,06,10,05,19.30
2010,08,06,10,06,19.40
2010,08,06,10,07,19.40
2010,08,06,10,08,19.40
2010,08,06,10,09,19.50
2010,08,06,10,10,19.60
2010,08,06,10,11,19.70
2010,08,06,10,12,19.70
2010,08,06,10,13,19.80
2010,08,06,10,14,19.80
2010,08,06,10,15,19.80
2010,08,06,10,16,19.70
2010,08,06,10,17,19.70
2010,08,06,10,18,19.70
2010,08,06,10,19,19.80
2010,08,06,10,20,19.90
2010,08,06,10,21,19.90
2010,08,06,10,22,19.90
2010,08,06,10,23,19.90
2010,08,06,10,24,19.90
2010,08,06,10,25,19.90
2010,08,06,10,26,20.00
2010,08,06,10,27,20.10
2010,08,06,10,28,20.20
2010,08,06,10,29,20.20
2010,08,06,10,30,20.30
2010,08,06,10,31,20.30
2010,08,06,10,32,20.20
2010,08,06,10,33,20.10
2010,08,06,10,34,19.90
2010,08,06,10,35,19.90
2010,08,06,10,36,19.80
2010,08,06,10,37,19.80
2010,08,06,10,38,19.90
2010,08,06,10,39,19.90
2010,08,06,10,40,19.90
2010,08,06,10,41,19.90
2010,08,06,10,42,19.90
2010,08,06,10,43,19.90
2010,08,06,10,44,19.90
2010,08,06,10,45,19.90
2010,08,06,10,46,19.90
2010,08,06,10,47,19.90
2010,08,06,10,48,19.90
2010,08,06,10,49,19.90
2010,08,06,10,50,19.90
2010,08,06,10,51,19.80
2010,08,06,10,52,19.80
2010,08,06,10,53,19.90
2010,08,06,10,54,19.90
2010,08,06,10,55,19.90
2010,08,06,10,56,20.00
2010,08,06,10,57,20.10
2010,08,06,10,58,20.10
2010,08,06,10,59,20.10
2010,08,06,11,00,20.20
2010,08,06,11,01,20.20
2010,08,06,11,02,20.20
2010,08,06,11,03,20.30
2010,08,06,11,04,20.40
2010,08,06,11,05,20.40
2010,08,06,11,06,20.30
2010,08,06,11,07,20.30
2010,08,06,11,08,20.30
2010,08,06,11,09,20.40
2010,08,06,11,10,20.40
2010,08,06,11,11,20.40
2010,08,06,11,12,20.40
2010,08,06,11,13,20.20
2010,08,06,11,14,20.10
2010,08,06,11,15,19.90
2010,08,06,11,16,19.90
2010,08,06,11,17,19.90
2010,08,06,11,18,19.90
2010,08,06,11,19,19.90
2010,08,06,11,20,20.00
2010,08,06,11,21,20.10
2010,08,06,11,22,20.20
2010,08,06,11,23,20.20
2010,08,06,11,24,20.20
2010,08,06,11,25,20.20
2010,08,06,11,26,20.30
2010,08,06,11,27,20.30
2010,08,06,11,28,20.40
2010,08,06,11,29,20.50
2010,08,06,11,30,20.60
2010,08,06,11,31,20.70
2010,08,06,11,32,20.80
2010,08,06,11,33,20.90
2010,08,06,11,34,20.90
2010,08,06,11,35,20.80
2010,08,06,11,36,20.80
2010,08,06,11,37,20.90
2010,08,06,11,38,21.00
2010,08,06,11,39,21.00
2010,08,06,11,40,21.00
2010,08,06,11,41,21.00
2010,08,06,11,42,21.00
2010,08,06,11,43,21.00
2010,08,06,11,44,21.00
2010,08,06,11,45,21.00
2010,08,06,11,46,21.10
2010,08,06,11,47,21.20
2010,08,06,11,48,21.20
2010,08,06,11,49,21.10
2010,08,06,11,50,21.20
2010,08,06,11,51,21.20
2010,08,06,11,52,21.30
2010,08,06,11,53,21.30
2010,08,06,11,54,21.30
2010,08,06,11,55,21.30
2010,08,06,11,56,21.30
2010,08,06,11,57,21.30
2010,08,06,11,58,21.40
2010,08,06,11,59,21.40
2010,08,06,12,00,21.50
2010,08,06,12,01,21.50
2010,08,06,12,02,21.50
2010,08,06,12,03,21.60
2010,08,06,12,04,21.60
2010,08,06,12,05,21.70
2010,08,06,12,06,21.70
2010,08,06,12,07,21.70
2010,08,06,12,08,21.60
2010,08,06,12,09,21.60
2010,08,06,12,10,21.60
2010,08,06,12,11,21.60
2010,08,06,12,12,21.60
2010,08,06,12,13,21.60
2010,08,06,12,14,21.60
2010,08,06,12,15,21.60
2010,08,06,12,16,21.60
2010,08,06,12,17,21.60
2010,08,06,12,18,21.60
2010,08,06,12,19,21.60
2010,08,06,12,20,21.60
2010,08,06,12,21,21.60
2010,08,06,12,22,21.60
2010,08,06,12,23,21.50
2010,08,06,12,24,21.40
2010,08,06,12,25,21.40
2010,08,06,12,26,21.40
2010,08,06,12,27,21.40
2010,08,06,12,28,21.40
2010,08,06,12,29,21.50
2010,08,06,12,30,21.60
2010,08,06,12,31,21.60
2010,08,06,12,32,21.50
2010,08,06,12,33,21.40
2010,08,06,12,34,21.30
2010,08,06,12,35,21.30
2010,08,06,12,36,21.30
2010,08,06,12,37,21.30
2010,08,06,12,38,21.40
2010,08,06,12,39,21.50
2010,08,06,12,40,21.60
2010,08,06,12,41,21.60
2010,08,06,12,42,21.50
2010,08,06,12,43,21.40
2010,08,06,12,44,21.40
2010,08,06,12,45,21.50
2010,08,06,12,46,21.60
2010,08,06,12,47,21.60
2010,08,06,12,48,21.60
2010,08,06,12,49,21.60
2010,08,06,12,50,21.60
2010,08,06,12,51,21.60
2010,08,06,12,52,21.40
2010,08,06,12,53,21.30
2010,08,06,12,54,21.20
2010,08,06,12,55,21.10
2010,08,06,12,56,21.00
2010,08,06,12,57,21.00
2010,08,06,12,58,20.80
2010,08,06,12,59,20.70
2010,08,06,13,00,20.60
2010,08,06,13,01,20.50
2010,08,06,13,02,20.30
2010,08,06,13,03,20.20
2010,08,06,13,04,20.20
2010,08,06,13,05,20.20
2010,08,06,13,06,20.20
2010,08,06,13,07,20.20
2010,08,06,13,08,20.20
2010,08,06,13,09,20.20
2010,08,06,13,10,20.10
2010,08,06,13,11,20.00
2010,08,06,13,12,19.90
2010,08,06,13,13,19.80
2010,08,06,13,14,19.70
2010,08,06,13,15,19.70
2010,08,06,13,16,19.70
2010,08,06,13,17,19.80
2010,08,06,13,18,19.90
2010,08,06,13,19,19.90
2010,08,06,13,20,19.90
2010,08,06,13,21,19.90
2010,08,06,13,22,19.90
2010,08,06,13,23,19.80
2010,08,06,13,24,19.80
2010,08,06,13,25,19.80
2010,08,06,13,26,19.90
2010,08,06,13,27,19.90
2010,08,06,13,28,20.00
2010,08,06,13,29,20.10
2010,08,06,13,30,20.20
2010,08,06,13,31,20.20
2010,08,06,13,32,20.30
2010,08,06,13,33,20.30
2010,08,06,13,34,20.30
2010,08,06,13,35,20.30
2010,08,06,13,36,20.30
2010,08,06,13,37,20.30
2010,08,06,13,38,20.40
2010,08,06,13,39,20.40
2010,08,06,13,40,20.40
2010,08,06,13,41,20.20
2010,08,06,13,42,20.20
2010,08,06,13,43,20.30
2010,08,06,13,44,20.40
2010,08,06,13,45,20.40
2010,08,06,13,46,20.50
2010,08,06,13,47,20.50
2010,08,06,13,48,20.50
2010,08,06,13,49,20.50
2010,08,06,13,50,20.40
2010,08,06,13,51,20.20
2010,08,06,13,52,20.20
2010,08,06,13,53,20.20
2010,08,06,13,54,20.30
2010,08,06,13,55,20.40
2010,08,06,13,56,20.50
2010,08,06,13,57,20.60
2010,08,06,13,58,20.80
2010,08,06,13,59,20.90
2010,08,06,14,00,20.90
2010,08,06,14,01,21.00
2010,08,06,14,02,21.10
2010,08,06,14,03,21.20
2010,08,06,14,04,21.20
2010,08,06,14,05,21.20
2010,08,06,14,06,21.20
2010,08,06,14,07,21.20
2010,08,06,14,08,21.30
2010,08,06,14,09,21.40
2010,08,06,14,10,21.50
2010,08,06,14,11,21.60
2010,08,06,14,12,21.80
2010,08,06,14,13,22.00
2010,08,06,14,14,22.00
2010,08,06,14,15,21.90
2010,08,06,14,16,21.80
2010,08,06,14,17,21.70
2010,08,06,14,18,21.60
2010,08,06,14,19,21.60
2010,08,06,14,20,21.60
2010,08,06,14,21,21.60
2010,08,06,14,22,21.70
2010,08,06,14,23,21.80
2010,08,06,14,24,21.80
2010,08,06,14,25,21.70
2010,08,06,14,26,21.70
2010,08,06,14,27,21.60
2010,08,06,14,28,21.60
2010,08,06,14,29,21.40
2010,08,06,14,30,21.30
2010,08,06,14,31,21.40
2010,08,06,14,32,21.40
2010,08,06,14,33,21.50
2010,08,06,14,34,21.60
2010,08,06,14,35,21.70
2010,08,06,14,36,21.80
2010,08,06,14,37,21.80
2010,08,06,14,38,21.90
2010,08,06,14,39,21.90
2010,08,06,14,40,22.00
2010,08,06,14,41,22.00
2010,08,06,14,42,22.00
2010,08,06,14,43,22.00
2010,08,06,14,44,21.90
2010,08,06,14,45,21.80
2010,08,06,14,46,21.70
2010,08,06,14,47,21.60
2010,08,06,14,48,21.60
2010,08,06,14,49,21.60
2010,08,06,14,50,21.60
2010,08,06,14,51,21.60
2010,08,06,14,52,21.60
2010,08,06,14,53,21.60
2010,08,06,14,54,21.60
2010,08,06,14,55,21.60
2010,08,06,14,56,21.60
2010,08,06,14,57,21.60
2010,08,06,14,58,21.70
2010,08,06,14,59,21.70
2010,08,06,15,00,21.70
2010,08,06,15,01,21.80
2010,08,06,15,02,21.80
2010,08,06,15,03,22.00
2010,08,06,15,04,22.00
2010,08,06,15,05,21.90
2010,08,06,15,06,22.00
2010,08,06,15,07,22.10
2010,08,06,15,08,22.20
2010,08,06,15,09,22.30
2010,08,06,15,10,22.20
2010,08,06,15,11,22.10
2010,08,06,15,12,22.00
2010,08,06,15,13,21.80
2010,08,06,15,14,21.70
2010,08,06,15,15,21.80
2010,08,06,15,16,21.90
2010,08,06,15,17,21.90
2010,08,06,15,18,21.90
2010,08,06,15,19,21.90
2010,08,06,15,20,21.90
2010,08,06,15,21,21.90
2010,08,06,15,22,21.80
2010,08,06,15,23,21.60
2010,08,06,15,24,21.60
2010,08,06,15,25,21.60
2010,08,06,15,26,21.60
2010,08,06,15,27,21.60
2010,08,06,15,28,21.40
2010,08,06,15,29,21.20
2010,08,06,15,30,21.10
2010,08,06,15,31,21.00
2010,08,06,15,32,21.00
2010,08,06,15,33,21.00
2010,08,06,15,34,21.00
2010,08,06,15,35,21.00
2010,08,06,15,36,21.00
2010,08,06,15,37,21.10
2010,08,06,15,38,21.10
2010,08,06,15,39,21.10
2010,08,06,15,40,20.90
2010,08,06,15,41,20.90
2010,08,06,15,42,20.70
2010,08,06,15,43,20.60
2010,08,06,15,44,20.60
2010,08,06,15,45,20.60
2010,08,06,15,46,20.60
2010,08,06,15,47,20.60
2010,08,06,15,48,20.50
2010,08,06,15,49,20.40
2010,08,06,15,50,20.30
2010,08,06,15,51,20.30
2010,08,06,15,52,20.20
2010,08,06,15,53,20.20
2010,08,06,15,54,20.20
2010,08,06,15,55,20.10
2010,08,06,15,56,20.00
2010,08,06,15,57,19.90
2010,08,06,15,58,19.90
2010,08,06,15,59,19.90
2010,08,06,16,00,19.90
2010,08,06,16,01,19.90
2010,08,06,16,02,19.80
2010,08,06,16,03,19.70
2010,08,06,16,04,19.70
2010,08,06,16,05,19.60
2010,08,06,16,06,19.50
2010,08,06,16,07,19.40
2010,08,06,16,08,19.30
2010,08,06,16,09,19.20
2010,08,06,16,10,19.20
2010,08,06,16,11,19.30
2010,08,06,16,12,19.30
2010,08,06,16,13,19.40
2010,08,06,16,14,19.40
2010,08,06,16,15,19.50
2010,08,06,16,16,19.50
2010,08,06,16,17,19.40
2010,08,06,16,18,19.40
2010,08,06,16,19,19.30
2010,08,06,16,20,19.30
2010,08,06,16,21,19.30
2010,08,06,16,22,19.30
2010,08,06,16,23,19.30
2010,08,06,16,24,19.30
2010,08,06,16,25,19.20
2010,08,06,16,26,19.10
2010,08,06,16,27,19.10
2010,08,06,16,28,19.00
2010,08,06,16,29,19.10
2010,08,06,16,30,19.10
2010,08,06,16,31,19.10
2010,08,06,16,32,19.10
2010,08,06,16,33,19.10
2010,08,06,16,34,19.20
2010,08,06,16,35,19.30
2010,08,06,16,36,19.30
2010,08,06,16,37,19.30
2010,08,06,16,38,19.30
2010,08,06,16,39,19.40
2010,08,06,16,40,19.30
2010,08,06,16,41,19.20
2010,08,06,16,42,19.20
2010,08,06,16,43,19.20
2010,08,06,16,44,19.10
2010,08,06,16,45,19.10
2010,08,06,16,46,19.10
2010,08,06,16,47,19.10
2010,08,06,16,48,19.10
2010,08,06,16,49,19.20
2010,08,06,16,50,19.20
2010,08,06,16,51,19.20
2010,08,06,16,52,19.20
2010,08,06,16,53,19.20
2010,08,06,16,54,19.20
2010,08,06,16,55,19.10
2010,08,06,16,56,19.20
2010,08,06,16,57,19.20
2010,08,06,16,58,19.20
2010,08,06,16,59,19.20
2010,08,06,17,00,19.10
2010,08,06,17,01,19.10
2010,08,06,17,02,19.10
2010,08,06,17,03,19.00
2010,08,06,17,04,18.90
2010,08,06,17,05,18.90
2010,08,06,17,06,18.90
2010,08,06,17,07,18.90
2010,08,06,17,08,18.90
2010,08,06,17,09,19.00
2010,08,06,17,10,19.10
2010,08,06,17,11,19.10
2010,08,06,17,12,19.10
2010,08,06,17,13,19.20
2010,08,06,17,14,19.30
2010,08,06,17,15,19.40
2010,08,06,17,16,19.40
2010,08,06,17,17,19.50
2010,08,06,17,18,19.50
2010,08,06,17,19,19.60